DELTA 1 DEB, 10659

Orbit data source: Space-Track

DELTA 1 DEB, 10659 is space debris in SSO originally from a launch on Thu, 29 Jul 1976 UTC launched from the Air Force Western Test Range (AFWTR). Debris objects in space refer to the collection of defunct objects orbiting the Earth. Examples of debris include non-operational satellites, rocket bodies, and fragments generated from explosions, collisions, or faulty payload assembly.

Loading next visibility...
Identifier
10659, 1976-077V
Orbit
SSO
Country
Flag of USUS
Related business
Manufacturer
Unknown
Mission
Spacecraft
Bus & Motor
Unknown
Mass
Unknown
Launch date (UTC)
1976-07-29 (50 years ago)
Launch vehicle
Unknown
Launch site
Air Force Western Test Range (AFWTR)
Object type
Payload
Rocket body
Debris
Shape & HBR
Unknown shape, 0.3 m
Radar Cross Section
Small (<0.1 m²)

Expand to show TLE details & history
Last TLE update: 11 hours ago

TLE from 11 hours ago
0 DELTA 1 DEB
1 10659U 76077V   26036.36179828  .00000082  00000-0  13097-2 0  9991
2 10659 102.1876 340.1148 0175903 310.0961 202.9477 12.09385726186698
Epoch: 2026-02-05T08:40Z
TLE epoch observation values (Epoch: 2026-02-05T08:40:59.371Z)
Latitude
27.08566°
Longitude
-99.33626°
Altitude
1,772.316 km
Speed
6.94 km/s
True Right ascension
11h 05m 42s
True Declination
26° 57' 50"
Sunlit
Object was in full shadow at epoch
Visualization orbit readout
Latitude
Unknown
Longitude
Unknown
Altitude
Unknown
Speed
Unknown
Apparent Right ascension
Unknown
Apparent Declination
Unknown
Sunlit
N/A
Visualization observer readout
Local Sidereal Time
22:11:41
Azimuth
Unknown
Elevation
Unknown
Doppler factor
Unknown
Orbital elements
Apogee altitude
1,777.719 km
Perigee altitude
1,495.751 km
Semi-major axis
8,014.872 km
Eccentricity
0.01759
Inclination
102.1876°
RAAN
340.1148°
Arg. of periapsis
310.0961°
True anomaly
202.17743°
Mean anomaly
202.9477°
Eccentric anomaly
202.56102°
Mean motion
3.02481 °/min
Orbital period
119.02 mins
BSTAR
0.0013097
Loading maneuver chart data...
Computing Atmospheric mass density...
Loading historical data...
Loading historical data...
Loading historical data...
Loading historical data...
Loading historical data...
Loading historical data...
Loading historical data...

Documentation

Showing up to 5 results
|